EDT,Max TemperatureF,Mean TemperatureF,Min TemperatureF,Max Dew PointF,MeanDew PointF,Min DewpointF,Max Humidity, Mean Humidity, Min Humidity, Max Sea Level PressureIn, Mean Sea Level PressureIn, Min Sea Level PressureIn, Max VisibilityMiles, Mean VisibilityMiles, Min VisibilityMiles, Max Wind SpeedMPH, Mean Wind SpeedMPH, Max Gust SpeedMPH,PrecipitationIn, CloudCover, Events, WindDirDegrees
2012-3-1,53,48,42,50,33,27,100,60,35,29.89,29.78,29.74,10,10,0,29,22,43,0.00,0,Rain-Thunderstorm,272
2012-3-2,42,38,35,43,38,36,100,100,93,29.97,29.88,29.71,10,1,0,16,11,23,0.50,8,Fog-Rain-Snow-Thunderstorm,154
2012-3-3,48,40,33,48,31,14,100,74,34,29.73,29.67,29.59,10,9,0,24,16,36,0.06,4,Fog-Rain-Thunderstorm,265
2012-3-4,32,28,21,21,18,12,93,71,59,29.77,29.68,29.62,10,10,4,26,15,36,0.00,4,Snow,281
2012-3-5,26,22,19,23,19,12,100,87,59,30.29,29.97,29.75,10,4,0,26,12,34,0.06,7,Snow,280
2012-3-6,41,28,14,21,17,9,100,62,35,30.54,30.47,30.32,10,10,7,13,8,20,0.02,1,,212
2012-3-7,55,44,33,37,27,12,71,50,33,30.56,30.49,30.41,10,10,10,21,12,28,0.00,0,,213
2012-3-8,57,50,44,46,43,39,93,77,58,30.39,30.26,30.12,10,10,7,26,13,34,0.00,4,,213
2012-3-9,46,38,30,46,26,16,100,69,39,30.27,30.15,30.08,10,10,0,31,18,41,0.00,3,Fog,294
2012-3-10,46,34,21,16,12,5,74,47,24,30.44,30.38,30.27,10,10,10,18,12,28,0.00,0,,292
2012-3-11,55,44,33,27,21,14,52,39,30,30.51,30.46,30.42,10,10,10,15,10,18,0.00,0,,213
2012-3-12,62,48,33,48,33,23,77,50,37,30.42,30.34,30.26,10,10,5,14,8,,0.00,3,Rain,225
2012-3-13,68,59,50,52,48,41,100,75,43,30.24,30.21,30.18,10,10,7,23,16,30,0.01,7,Rain,265
2012-3-14,69,60,51,48,44,32,82,65,25,30.35,30.29,30.24,10,10,10,13,9,18,0.00,,,275
2012-3-15,60,56,53,46,43,37,77,60,42,30.38,30.33,30.27,10,10,10,23,9,31,0.00,1,Thunderstorm,251
2012-3-16,60,54,48,52,47,45,94,79,67,30.30,30.27,30.24,10,10,10,17,11,23,0.00,5,Rain,279
2012-3-17,64,58,53,52,49,48,88,75,56,30.37,30.33,30.29,10,10,10,9,4,,0.00,3,,96
2012-3-18,60,56,51,55,53,48,100,92,63,30.40,30.35,30.30,10,6,0,12,8,16,0.00,6,Fog-Rain,184
2012-3-19,66,58,50,55,52,46,100,84,64,30.32,30.28,30.25,10,9,0,18,7,43,1.03,2,Rain-Thunderstorm,273
2012-3-20,69,62,55,55,52,46,94,75,46,30.35,30.31,30.26,10,10,10,13,4,21,0.00,3,Rain-Thunderstorm,182
2012-3-21,57,54,51,55,51,46,100,88,67,30.40,30.36,30.31,10,7,0,10,7,,0.00,5,Fog-Thunderstorm,170
2012-3-22,71,62,53,55,54,52,100,82,50,30.36,30.33,30.25,10,9,3,13,7,16,0.00,3,,216
2012-3-23,73,64,55,54,51,48,82,63,41,30.27,30.21,30.10,10,10,10,13,8,23,0.00,0,,226
2012-3-24,60,54,48,55,52,46,100,95,72,30.08,30.00,29.91,10,6,0,15,7,20,0.96,7,Rain-Thunderstorm,215
2012-3-25,51,48,46,52,48,45,100,98,87,29.89,29.86,29.82,10,8,0,14,6,20,0.10,8,Fog-Rain-Thunderstorm,15
2012-3-26,53,48,42,48,35,12,100,66,19,30.08,29.99,29.93,10,10,2,26,17,41,0.00,2,,316
2012-3-27,55,40,24,21,14,-9,69,39,18,30.30,30.24,30.16,10,10,10,13,7,,0.00,0,,295
2012-3-28,69,56,44,46,37,27,63,50,35,30.20,30.07,29.89,10,10,10,29,17,44,0.00,1,,258
2012-3-29,62,54,46,45,33,28,67,46,29,29.98,29.92,29.85,10,10,10,26,20,46,0.00,0,,291
2012-3-30,60,50,41,45,38,32,93,65,52,30.10,30.03,29.95,10,10,7,15,7,20,0.04,3,Rain,181
2012-3-31,60,56,51,48,47,39,88,73,48,29.93,29.87,29.84,10,10,10,18,16,29,0.00,4,,278